Tracking 19415 objects as of 15-Dec-2018
HD Live streaming from Space Station
objects crossing your sky now

FENGYUN 1C DEB

Track FENGYUN 1C DEB now!
10-day predictions


NORAD ID: 38138
Int'l Code: 1999-025EQK
Perigee: 808.9 km
Apogee: 885.2 km
Inclination: 98.9 °
Period: 101.7 minutes
Semi major axis: 7218 km
RCS: 0.0022 m2 (small)
Launch date: May 10, 1999
Source: People's Republic of China (PRC)
Launch site: Taiyaun Space Center, China (TSC)

Note: This is SATELLITE DEBRIS
aabbcc
Your satellite tracking list
Your tracking list is empty




NASA's NSSDC Master Catalog

Two Line Element Set (TLE):
1 38138U 99025EQK 18345.36153536 +.00000789 +00000-0 +41944-3 0  9990
2 38138 098.9276 038.6052 0052875 123.7204 236.9025 14.15714980274703
Source of the keplerian elements: AFSPC